This is the latest recevied weather packets stored in our database for station/object K1RTA. If no packets are shown the sender has not sent any weather packets the latest 10 day(s).
| Time | Temp. | Humidity | Pressure | Rain* | Wind** | Luminosity | Snow |
|---|---|---|---|---|---|---|---|
| 1788030333 | 26.11° C | 55% | 1022.6 hPa | 0 mm | - | - | - |
| 1788030032 | 26.11° C | 56% | 1022.7 hPa | 0 mm | - | - | - |
| 1788029732 | 26.11° C | 55% | 1022.8 hPa | 0 mm | - | - | - |
| 1788029434 | 26.11° C | 53% | 1022.9 hPa | 0 mm | - | - | - |
| 1788029134 | 26.11° C | 55% | 1022.9 hPa | 0 mm | - | - | - |
| 1788028834 | 26.11° C | 54% | 1022.9 hPa | 0 mm | - | - | - |
| 1788028533 | 26.11° C | 54% | 1023 hPa | 0 mm | - | - | - |
| 1788028233 | 26.11° C | 54% | 1022.8 hPa | 0 mm | - | - | - |
| 1788027933 | 26.11° C | 52% | 1022.8 hPa | 0 mm | - | - | - |
| 1788027633 | 26.11° C | 56% | 1022.8 hPa | 0 mm | - | - | - |
| 1788027333 | 26.11° C | 53% | 1022.8 hPa | 0 mm | - | - | - |
| 1788027033 | 26.11° C | 53% | 1022.8 hPa | 0 mm | - | - | - |
| 1788026732 | 26.11° C | 53% | 1022.9 hPa | 0 mm | - | - | - |
| 1788026432 | 26.11° C | 54% | 1022.9 hPa | 0 mm | - | - | - |
| 1788026134 | 26.11° C | 56% | 1022.9 hPa | 0 mm | - | - | - |
| 1788025834 | 25.56° C | 54% | 1022.9 hPa | 0 mm | - | - | - |
| 1788025534 | 26.11° C | 53% | 1023 hPa | 0 mm | - | - | - |
| 1788025234 | 26.11° C | 56% | 1023 hPa | 0 mm | - | - | - |
| 1788024933 | 26.11° C | 57% | 1022.9 hPa | 0 mm | - | - | - |
| 1788024633 | 26.11° C | 56% | 1022.9 hPa | 0 mm | - | - | - |
| 1788024333 | 26.11° C | 58% | 1022.8 hPa | 0 mm | - | - | - |
| 1788024033 | 25.56° C | 59% | 1022.6 hPa | 0 mm | - | - | - |
| 1788023733 | 25.56° C | 59% | 1022.6 hPa | 0 mm | - | - | - |
| 1788023432 | 25.56° C | 59% | 1022.7 hPa | 0 mm | - | - | - |
| 1788023132 | 25.56° C | 58% | 1022.7 hPa | 0 mm | - | - | - |
* Rain latest hour (hover to see other rain measurements)
** Current wind speed in m/s (hover to see current wind gust speed)